TimeCDT,TemperatureF,Dew PointF,Humidity,Sea Level PressureIn,VisibilityMPH,Wind Direction,Wind SpeedMPH,Gust SpeedMPH,PrecipitationIn,Events,Conditions,WindDirDegrees,DateUTC
12:51 AM,84.0,57.0,40,29.94,10.0,South,4.6,-,N/A,,Clear,190,2013-07-11 05:51:00
1:51 AM,82.0,57.0,42,29.94,10.0,SSW,3.5,-,N/A,,Clear,200,2013-07-11 06:51:00
2:51 AM,80.1,57.9,47,29.94,10.0,South,8.1,-,N/A,,Clear,180,2013-07-11 07:51:00
3:51 AM,80.1,60.1,50,29.95,10.0,South,10.4,-,N/A,,Clear,190,2013-07-11 08:51:00
4:51 AM,79.0,62.1,56,29.94,10.0,South,6.9,-,N/A,,Clear,180,2013-07-11 09:51:00
5:51 AM,79.0,64.9,62,29.94,10.0,South,8.1,-,N/A,,Clear,180,2013-07-11 10:51:00
6:51 AM,77.0,64.9,66,29.95,10.0,Calm,Calm,-,N/A,,Clear,0,2013-07-11 11:51:00
7:51 AM,79.0,66.0,64,29.96,10.0,South,4.6,-,N/A,,Clear,190,2013-07-11 12:51:00
8:51 AM,82.9,66.0,56,29.96,10.0,SSW,9.2,-,N/A,,Clear,200,2013-07-11 13:51:00
9:51 AM,87.1,64.9,48,29.95,10.0,SSW,9.2,-,N/A,,Clear,210,2013-07-11 14:51:00
10:51 AM,90.0,64.9,43,29.94,10.0,South,11.5,-,N/A,,Clear,180,2013-07-11 15:51:00
11:51 AM,93.0,64.0,38,29.94,10.0,SW,6.9,-,N/A,,Clear,220,2013-07-11 16:51:00
12:51 PM,96.1,60.1,30,29.94,10.0,SSE,8.1,-,N/A,,Clear,150,2013-07-11 17:51:00
1:51 PM,98.1,60.1,28,29.91,10.0,East,10.4,20.7,N/A,,Clear,80,2013-07-11 18:51:00
2:51 PM,98.1,57.9,26,29.90,10.0,Variable,4.6,-,N/A,,Scattered Clouds,0,2013-07-11 19:51:00
3:51 PM,98.1,55.9,24,29.87,10.0,SE,8.1,25.3,N/A,,Mostly Cloudy,130,2013-07-11 20:51:00
4:51 PM,98.1,57.0,25,29.85,10.0,Variable,3.5,-,N/A,,Partly Cloudy,0,2013-07-11 21:51:00
5:51 PM,98.1,55.9,24,29.83,10.0,East,8.1,-,N/A,,Clear,90,2013-07-11 22:51:00
6:51 PM,98.1,55.0,24,29.81,10.0,East,9.2,-,N/A,,Clear,80,2013-07-11 23:51:00
7:51 PM,97.0,55.9,25,29.82,10.0,East,8.1,-,N/A,,Clear,90,2013-07-12 00:51:00
8:51 PM,93.0,55.9,29,29.82,10.0,East,4.6,-,N/A,,Clear,90,2013-07-12 01:51:00
9:51 PM,90.0,55.9,31,29.84,10.0,SE,3.5,-,N/A,,Overcast,140,2013-07-12 02:51:00
10:51 PM,89.1,57.9,35,29.85,10.0,SSE,8.1,-,N/A,,Clear,150,2013-07-12 03:51:00
11:51 PM,88.0,57.9,36,29.86,10.0,South,9.2,-,N/A,,Clear,170,2013-07-12 04:51:00